Flag for Reunion (French) Weather past 2 weeks in Saint-Denis, Reunion (French)

Now
75 °F

Passing clouds.


Feels Like: 75 °F
Forecast: 72 / 82 °F
Wind: 8 mph from Southeast

Location: Saint-Denis / Gillot

Current Time: Jan 31, 2015 at 11:29:36 PM

Latest Report: Jan 31, 2015 at 10:30 PM


Visibility: N/A

Pressure: 29.95 "Hg

Humidity: 83%

Dew point: 70 °F

Location of Saint-DenisLocation

Historic Weather in Saint-Denis — Graph

°F

Saint-Denis temperature yesterday

Maximum temperature yesterday: 86 °F (at 10:04 AM)
Minimum temperature yesterday: 68 °F (at 3:30 AM)
Average temperature yesterday: 78 °F

Past Weeks' High & Low Weather Summary

 TemperatureHumidityPressure
High88 °F (Jan 20, 1:30 PM)100% (Jan 24, 7:30 AM)30.04 "Hg (Jan 24, 7:30 AM)
Low68 °F (Jan 30, 3:30 AM)55% (Jan 26, 2:00 PM)29.59 "Hg (Jan 18, 4:30 PM)
Average80 °F77%29.83 "Hg
* Reported Jan 16 10:00 PM — Jan 31 10:30 PM, Saint-Denis, Weather by CustomWeather, © 2014

Note: Actual official high and low records may vary slightly from our data, if they occured in-between our weather recording intervals... More about our weather records

Advertising

Saint-Denis weather history for previous 24 hours

 ConditionsComfort  
Time TempWeatherWind HumidityBarometerVisibility
10:30 PM
Jan 31
75 °FPassing clouds.8 mph83%29.95 "HgN/A
10:00 PM75 °FPassing clouds.8 mph83%29.95 "HgN/A
9:30 PM75 °FPassing clouds.10 mph89%29.95 "HgN/A
9:00 PM75 °FLight rain. Fog.15 mph89%29.92 "Hg3 mi
8:30 PM77 °FPassing clouds.9 mph79%29.92 "HgN/A
8:00 PM79 °FLight rain. Partly cloudy.9 mph74%29.92 "HgN/A
7:30 PM81 °FMostly cloudy.10 mph70%29.92 "HgN/A
7:00 PM81 °FPartly cloudy.10 mph70%29.89 "HgN/A
6:30 PM81 °FOvercast.10 mph70%29.89 "HgN/A
5:21 PM81 °FScattered showers. Scattered clouds.15 mph70%29.89 "HgN/A
5:00 PM82 °FScattered clouds.18 mph70%29.86 "HgN/A
4:30 PM82 °FScattered clouds.18 mph66%29.86 "HgN/A
4:00 PM84 °FScattered clouds.20 mph62%29.86 "HgN/A
3:30 PM84 °FScattered clouds.20 mph62%29.89 "HgN/A
3:00 PM84 °FPassing clouds.20 mph66%29.89 "HgN/A
2:30 PM84 °FPassing clouds.21 mph62%29.89 "HgN/A
2:00 PM86 °FPassing clouds.21 mph62%29.89 "HgN/A
1:30 PM86 °FPassing clouds.22 mph62%29.89 "HgN/A
1:00 PM84 °FPassing clouds.22 mph66%29.89 "HgN/A
12:30 PM86 °FPassing clouds.23 mph66%29.89 "HgN/A
12:00 PM84 °FPassing clouds.22 mph66%29.92 "HgN/A
11:30 AM86 °FPassing clouds.22 mph59%29.92 "HgN/A
11:00 AM86 °FPassing clouds.20 mph62%29.92 "HgN/A
10:40 AM84 °FPassing clouds.20 mph62%29.92 "HgN/A
10:00 AM84 °FPassing clouds.17 mph58%29.92 "HgN/A
9:30 AM82 °FPassing clouds.14 mph62%29.92 "HgN/A
9:00 AM82 °FPassing clouds.15 mph66%29.92 "HgN/A
8:30 AM82 °FPassing clouds.12 mph58%29.92 "HgN/A
8:00 AM81 °FPassing clouds.6 mph58%29.92 "HgN/A
7:00 AM75 °FPassing clouds.8 mph74%29.92 "HgN/A
6:30 AM72 °FPassing clouds.8 mph73%29.89 "HgN/A
5:51 AM70 °FPassing clouds.5 mph78%29.89 "HgN/A
5:30 AM70 °FClear.9 mph78%29.89 "HgN/A
5:00 AM70 °FClear.6 mph78%29.89 "HgN/A
4:30 AM70 °FClear.5 mph83%29.89 "HgN/A
11:30 PM
Jan 30
77 °FPassing clouds.14 mph65%29.92 "HgN/A
11:00 PM77 °FClear.9 mph65%29.92 "HgN/A
Weather by CustomWeather, © 2014

See weather overviewHow to use our weather pages